Overview Statistics Trail Chart Weather Telemetry Raw packets
 

This is the latest recevied weather packets stored in our database for station/object KC2GYU. If no packets are shown the sender has not sent any weather packets the latest 10 day(s).

<< 57 58 59 60 61 62 63 >>
Time Temp. Humidity Pressure Rain* Wind** Luminosity Snow
1777683494 10.56° C 91% 1013.5 hPa 0 mm - 0 W/m² -
1777683192 10.56° C 91% 1013.5 hPa 0 mm - 0 W/m² -
1777682889 10.56° C 90% 1013.3 hPa 0 mm - 0 W/m² -
1777682594 10.56° C 90% 1013.5 hPa 0 mm - 0 W/m² -
1777682283 10.56° C 90% 1013.3 hPa 0 mm - 0 W/m² -
1777681980 10.56° C 89% 1013.1 hPa 0 mm - 0 W/m² -
1777681675 10.56° C 88% 1013.2 hPa 0 mm - 0 W/m² -
1777681373 10.56° C 88% 1013.3 hPa 0 mm - 0 W/m² -
1777681070 10.56° C 87% 1013.1 hPa 0 mm - 0 W/m² -
1777680768 10.56° C 86% 1013.3 hPa 0 mm - 0 W/m² -
1777680466 10.56° C 85% 1013.1 hPa 0 mm - 0 W/m² -
1777680164 10.56° C 84% 1013.3 hPa 0 mm - 0 W/m² -
1777679864 10.56° C 84% 1013.1 hPa 0 mm - 0 W/m² -
1777679560 10.56° C 83% 1013.1 hPa 0 mm - 0 W/m² -
1777679256 10.56° C 82% 1013.1 hPa 0 mm - 3 W/m² -
1777678953 11.11° C 82% 1013 hPa 0 mm - 6 W/m² -
1777678652 11.11° C 81% 1012.9 hPa 0 mm - 8 W/m² -
1777678350 11.11° C 80% 1013 hPa 0 mm - 11 W/m² -
1777678050 11.11° C 80% 1012.7 hPa 0 mm - 14 W/m² -
1777677747 11.67° C 79% 1012.8 hPa 0 mm - 18 W/m² -
1777677445 11.67° C 79% 1013 hPa 0 mm - 20 W/m² -
1777677143 11.67° C 78% 1012.8 hPa 0 mm - 23 W/m² -
1777676841 11.67° C 79% 1012.6 hPa 0 mm - 26 W/m² -
1777676539 12.22° C 78% 1012.7 hPa 0 mm - 34 W/m² -
1777676237 12.22° C 78% 1012.8 hPa 0 mm - 30 W/m² -

* Rain latest hour (hover to see other rain measurements)
** Current wind speed in m/s (hover to see current wind gust speed)